RH
42 35 34 39 40 41 43 45 47 46 46 47 47 46 43 40 38 36 34 33 32 32 32 30 28 27 26 25 26 26 26 26 26 25 24 23 24 26 36 54 65 64 62 62 61 61 62 65 67 65 63 62 62 63 62 59 55 51 48 47 46 46 46 45 42 35 26 16 9 9 8 5 5 4 3 3 2 2 2 2 2 2 2 2 2 2
42 33 33 40 40 40 42 43 45 45 45 46 46 45 43 40 38 38 36 35 35 34 33 31 29 27 26 25 25 25 25 26 26 26 24 23 23 24 33 51 62 61 60 61 62 62 64 67 67 65 63 61 61 61 61 60 56 52 49 47 46 46 45 44 42 36 29 20 10 8 8 6 5 4 3 3 3 2 2 3 2 2 2 2 2 2
36 31 36 40 38 39 40 41 43 45 46 47 46 44 43 41 40 40 38 37 37 35 33 31 28 27 26 25 24 25 26 26 26 26 24 23 23 23 31 45 56 58 59 63 64 64 66 68 67 65 63 60 60 60 59 60 57 53 51 48 46 46 45 43 42 38 32 24 14 8 8 7 5 4 4 3 3 3 2 3 2 3 3 2 3 3
32 33 38 39 38 38 39 41 43 45 48 48 46 44 43 42 42 41 39 38 37 35 33 30 28 27 25 25 24 25 26 26 26 25 24 23 22 23 28 38 49 55 60 64 67 67 67 68 66 65 64 61 59 59 59 59 58 55 52 49 46 45 44 43 42 40 35 29 19 11 8 8 6 4 4 3 2 3 2 2 2 2 3 3 3 3
34 35 38 39 36 36 39 41 43 46 49 48 45 43 43 43 43 42 40 39 37 34 31 29 27 26 25 24 24 25 25 26 26 24 23 23 22 22 24 32 45 55 62 65 68 69 68 68 66 66 65 62 59 58 59 59 58 56 52 49 46 44 44 43 42 41 38 33 24 15 9 8 8 5 4 4 3 3 2 2 3 2 2 2 2 2
36 36 38 38 35 37 40 40 43 47 48 45 43 41 41 43 43 41 40 38 36 33 30 28 26 25 24 24 24 24 25 25 26 24 22 22 21 21 22 29 43 56 63 67 70 71 70 68 67 67 65 61 58 57 57 58 56 55 53 50 46 44 43 43 42 42 41 36 28 19 12 9 9 7 5 4 4 3 3 3 3 3 3 2 3 2
39 38 38 36 35 38 39 40 44 47 46 43 40 39 40 43 43 41 39 37 34 30 28 26 25 24 23 23 23 24 25 25 25 23 22 22 21 21 22 28 43 57 64 68 71 73 72 71 70 68 64 59 57 55 56 56 55 55 54 51 48 44 43 43 43 42 42 39 32 23 14 9 8 7 5 4 4 3 3 3 3 3 3 3 3 3
41 38 36 34 35 36 37 42 45 44 43 40 37 37 40 43 42 41 39 36 32 29 27 26 24 23 22 22 23 23 24 24 24 23 22 22 21 21 22 28 42 58 65 69 72 75 75 74 71 67 61 57 55 54 54 54 54 55 55 53 49 45 44 43 43 42 42 41 35 27 18 10 8 8 7 4 4 4 3 3 3 3 3 3 3 3
39 36 33 33 35 36 39 43 43 41 39 37 36 38 40 42 41 40 38 34 31 28 26 25 24 22 21 22 22 23 24 24 24 23 22 22 21 21 22 29 45 60 66 69 74 78 80 76 70 65 59 55 53 53 53 54 54 55 55 54 50 47 46 45 44 43 42 42 38 30 21 14 9 8 8 6 4 4 3 3 3 3 3 3 3 3
37 35 34 36 37 37 40 41 40 39 37 35 36 38 39 41 41 39 36 33 30 27 26 24 23 22 22 22 22 22 23 24 23 22 22 22 21 21 22 31 49 62 67 71 77 82 84 77 68 63 58 55 53 52 53 54 54 55 56 55 52 48 47 46 44 43 42 42 40 33 24 17 11 8 8 7 5 5 4 3 3 3 3 3 3 3
36 36 37 37 37 37 39 40 40 38 35 35 36 37 40 42 41 38 34 32 29 26 25 24 23 22 22 21 22 22 23 23 23 22 22 22 22 22 23 33 51 64 69 74 80 85 86 76 67 62 58 56 54 53 54 55 55 56 57 56 53 50 49 47 45 44 43 43 41 37 28 19 14 9 8 9 7 5 5 4 3 3 3 3 3 3
36 37 38 36 35 37 39 40 40 36 33 34 36 39 42 42 40 36 32 30 28 26 25 24 23 22 21 21 22 23 23 23 23 23 22 23 22 22 24 34 52 65 71 76 82 86 85 76 67 63 59 57 56 55 56 57 58 58 58 57 55 52 51 49 47 45 43 43 42 40 32 22 16 11 8 9 8 6 5 5 4 3 3 3 3 3
36 37 36 34 34 36 38 39 38 35 34 35 38 42 42 39 36 33 31 30 27 25 25 24 23 22 21 21 22 23 23 23 23 23 23 23 22 22 25 36 53 64 70 78 84 86 82 75 68 64 59 57 58 58 59 59 60 59 59 58 56 54 53 51 48 46 44 43 42 41 36 26 19 13 9 8 9 7 5 6 4 3 4 3 3 3
36 35 34 35 36 36 38 38 37 35 34 36 39 40 37 33 31 30 30 29 27 25 25 24 23 22 21 22 23 24 24 24 23 23 23 23 22 23 26 37 52 61 69 79 84 85 80 74 69 64 60 59 59 61 61 61 61 61 60 59 58 57 56 53 50 47 44 43 42 42 38 30 21 16 11 8 9 9 6 5 5 4 3 3 3 3
34 34 35 36 36 36 37 37 35 32 32 34 37 35 32 29 29 29 29 29 28 26 25 25 23 22 22 23 24 24 24 24 23 23 24 23 22 23 27 39 51 59 69 79 84 84 79 72 69 64 61 60 60 62 63 62 62 63 61 61 60 58 57 55 52 48 45 44 43 42 40 33 24 18 14 9 8 9 7 5 5 4 3 3 3 3
34 34 35 35 34 35 36 36 32 31 32 34 35 32 30 30 29 29 29 29 28 26 24 24 23 23 23 23 24 24 24 23 23 24 24 23 22 23 28 40 52 61 71 80 84 84 78 71 67 64 62 61 61 63 64 64 64 65 64 62 60 58 57 55 53 49 46 45 44 42 40 36 27 20 16 11 8 9 8 5 5 4 3 3 3 3
35 34 33 33 32 33 34 34 32 32 33 34 34 32 30 30 29 29 28 28 27 26 24 23 23 23 23 24 24 23 24 24 23 24 24 23 22 24 31 43 55 65 74 81 82 82 78 70 66 63 62 63 63 63 64 65 65 66 66 64 61 59 58 56 54 51 49 47 44 43 41 38 31 22 17 13 8 8 9 6 5 5 4 3 3 3
34 33 32 31 31 32 32 32 30 31 33 33 32 31 29 29 28 27 28 27 25 25 24 23 22 23 23 23 23 23 24 24 23 24 24 23 23 25 34 47 60 70 78 80 81 81 77 69 64 61 62 64 65 64 65 66 66 67 67 65 63 61 59 58 56 54 51 48 45 44 42 39 33 24 18 15 10 7 9 8 5 5 4 3 3 3
32 32 31 30 30 31 31 30 29 30 31 31 30 29 28 27 26 26 27 27 25 24 24 23 22 22 22 22 23 23 23 24 23 24 24 23 23 27 38 52 65 75 80 80 79 80 76 68 63 61 61 64 66 65 65 66 67 67 67 66 64 62 60 59 57 55 52 50 47 45 42 39 34 26 19 16 12 7 8 9 6 5 4 3 3 3
31 31 31 30 31 32 31 28 28 30 30 29 28 27 26 25 25 25 26 26 25 24 23 23 22 22 22 22 23 23 23 23 23 23 24 23 24 31 43 57 69 77 81 79 78 80 76 68 63 61 61 64 66 67 66 66 68 68 67 67 66 64 62 60 59 57 54 52 49 46 43 40 35 29 21 17 14 8 7 9 7 5 5 4 3 3
31 31 31 31 31 32 31 28 27 29 30 29 28 27 25 24 24 25 26 25 25 23 23 23 22 21 22 22 23 23 23 23 23 23 24 23 25 35 49 62 73 79 80 78 77 78 75 69 64 61 62 64 66 68 68 68 68 69 69 69 68 67 64 62 61 59 56 55 52 48 44 40 36 30 23 18 15 10 7 9 8 5 5 4 3 3
32 33 33 33 34 33 31 28 26 27 29 29 29 28 25 24 25 25 25 25 24 23 22 23 23 22 22 22 23 23 23 23 23 23 23 23 27 40 55 68 76 81 81 78 76 77 74 69 65 63 63 65 67 69 69 70 70 71 71 70 70 69 67 66 64 62 59 57 54 50 45 40 36 31 24 19 17 12 7 8 9 6 5 4 3 3
33 33 33 35 36 34 32 30 28 27 28 28 28 27 26 26 26 26 25 24 24 23 21 22 23 22 22 22 23 23 23 23 23 23 23 23 29 44 60 72 79 82 81 79 79 78 74 70 66 65 65 67 68 70 71 72 73 73 72 72 72 71 69 68 66 63 61 59 57 52 46 40 36 32 26 20 18 14 8 7 9 7 5 5 3 3
34 34 36 38 38 35 32 31 30 27 27 28 27 27 28 29 28 26 24 24 23 23 22 22 22 22 22 22 23 23 23 23 23 23 22 23 32 48 65 75 81 83 83 83 84 82 75 70 68 68 68 69 70 71 73 74 75 75 74 74 74 73 71 70 69 67 64 61 58 55 48 40 36 32 27 21 18 16 9 6 8 7 5 5 4 3
35 36 36 37 39 39 37 36 36 32 30 29 29 29 30 29 28 26 25 24 23 23 22 22 22 22 22 22 23 23 23 24 23 23 23 25 36 53 68 78 83 85 85 87 89 85 77 72 70 70 71 71 71 73 75 76 77 76 76 76 76 76 73 72 72 70 66 63 60 57 50 42 36 33 28 22 19 17 11 6 8 8 6 5 4 3
36 36 35 33 33 35 36 36 37 35 32 31 30 30 31 29 28 27 25 23 22 23 23 22 21 22 23 23 23 23 24 24 24 23 24 29 42 58 71 80 85 86 88 93 93 87 79 75 73 72 72 73 74 76 77 78 79 78 78 79 79 78 76 74 73 71 68 65 62 58 51 43 37 34 29 23 19 18 13 7 7 8 6 5 5 3
37 37 37 34 31 31 33 33 33 33 31 31 32 31 30 29 28 26 24 21 21 23 23 22 21 21 22 23 23 24 24 24 24 24 27 35 49 63 72 80 84 84 88 96 96 89 83 79 76 75 74 75 76 78 79 81 81 80 80 81 82 81 78 76 76 74 71 68 64 60 53 45 38 34 30 24 19 18 14 7 6 8 7 6 5 3
41 40 40 39 35 34 36 36 35 33 30 30 32 32 30 29 28 26 23 21 22 22 22 22 22 21 22 23 23 24 23 23 24 25 30 41 55 65 73 79 81 80 86 94 95 90 86 82 80 78 77 77 78 79 82 83 83 82 83 84 84 82 79 78 78 77 75 70 66 62 55 47 39 34 30 24 19 18 15 9 6 8 8 6 5 4
44 43 44 45 41 37 36 37 36 34 32 30 31 32 31 30 29 26 23 22 22 22 22 22 22 21 22 23 23 24 23 23 25 28 35 47 59 68 73 76 77 78 85 91 91 90 88 85 83 81 80 80 80 82 85 86 85 84 84 85 85 83 82 81 81 81 78 73 69 64 57 49 41 35 31 26 20 19 17 11 7 8 8 6 5 4
44 45 45 48 47 41 36 36 36 35 35 33 32 33 33 32 31 28 24 22 21 21 22 21 22 22 23 24 24 24 23 23 26 33 42 54 65 72 74 76 78 80 85 89 89 89 89 88 87 85 83 83 82 85 89 89 86 86 86 87 87 86 85 84 84 82 80 75 71 66 59 51 43 36 32 27 22 20 19 13 8 8 8 7 6 5
44 45 44 45 48 43 36 35 36 36 37 35 33 34 34 34 35 31 25 22 21 21 21 21 21 22 23 24 24 24 24 25 30 40 51 62 71 77 79 79 82 84 86 89 90 89 88 89 89 87 86 86 86 88 92 92 89 88 89 88 89 88 87 86 86 84 82 79 74 68 60 52 45 38 33 29 24 22 21 15 9 9 9 7 6 5
43 43 42 41 42 40 35 34 36 36 36 34 33 34 35 36 37 32 25 22 21 21 21 21 21 22 23 24 24 24 25 28 36 49 61 71 78 83 86 86 87 89 90 91 92 90 89 90 89 88 88 90 91 91 94 95 92 90 90 89 88 89 88 88 88 87 85 82 77 69 61 53 47 40 35 30 25 24 23 16 10 9 9 8 6 5
42 41 38 35 35 35 33 32 34 34 34 33 32 34 35 36 36 31 26 22 21 21 21 21 21 22 24 24 24 26 29 34 44 57 69 79 86 91 94 94 93 94 94 94 93 91 90 91 89 89 91 93 93 94 97 99 96 93 92 91 90 90 90 89 89 88 87 85 79 70 61 53 47 42 37 32 27 25 24 18 11 10 10 8 7 6
40 37 34 31 31 32 31 30 31 31 30 30 30 31 32 32 33 31 27 23 21 21 21 21 22 23 24 24 24 27 33 42 52 64 74 82 90 97 99 98 98 98 97 96 95 93 93 92 90 90 93 94 95 96 99 101 99 96 96 95 93 92 91 91 91 90 89 86 79 71 61 53 47 41 37 34 28 26 25 19 12 10 10 8 7 6
36 34 32 30 29 29 28 28 28 29 28 27 27 27 28 30 31 30 28 24 21 21 21 21 23 23 24 25 24 28 39 51 60 70 78 85 91 98 101 101 101 100 98 97 97 97 96 94 91 93 96 98 98 99 101 102 101 100 99 97 94 93 92 91 92 93 91 85 79 71 62 53 47 40 37 34 29 26 26 21 13 10 10 9 7 6
34 32 30 30 28 27 27 26 26 26 27 25 25 25 26 29 30 28 26 24 22 21 21 22 23 24 24 25 26 31 44 58 66 73 81 87 94 99 101 103 103 101 99 99 100 101 100 96 94 96 98 99 100 101 102 102 101 100 100 98 95 94 93 91 92 93 90 84 77 71 63 54 47 40 36 34 30 27 26 22 14 11 11 10 7 6
33 32 31 30 29 27 26 26 25 25 25 24 23 24 25 26 27 25 24 23 21 20 21 23 24 24 24 24 27 33 46 62 73 79 85 92 96 99 101 104 104 102 101 102 103 104 103 100 98 98 100 101 101 102 103 103 102 101 102 101 97 95 94 92 90 91 88 83 76 70 63 55 47 41 36 33 30 27 27 24 15 12 12 11 8 6
35 34 33 32 30 27 25 24 23 23 23 23 21 22 23 24 25 24 22 22 22 21 22 23 24 24 24 25 29 36 48 63 76 82 87 92 96 99 102 104 104 102 102 104 107 108 106 104 101 101 102 102 102 103 103 104 104 105 105 103 98 95 93 90 89 88 85 81 76 69 63 56 48 41 36 33 30 27 28 25 17 13 14 12 9 7
38 36 34 33 31 27 25 23 22 21 21 21 20 20 22 23 23 22 21 22 22 21 22 23 24 24 24 26 31 39 48 60 73 79 83 88 94 99 101 101 100 99 100 104 108 109 109 108 105 102 103 102 102 103 104 104 105 105 105 104 100 96 92 88 86 84 82 79 75 69 63 56 48 42 36 33 29 27 28 27 18 14 15 14 11 8
38 36 34 34 31 28 25 24 22 22 21 20 20 20 21 22 22 21 21 21 21 21 22 23 23 23 24 27 33 42 50 58 67 73 77 85 94 99 99 98 96 95 98 104 109 110 109 109 107 104 104 103 102 102 104 105 107 106 105 103 100 95 90 85 82 80 78 76 72 68 63 56 48 42 37 33 30 27 28 27 20 15 16 15 13 9
36 34 32 32 31 28 26 24 23 23 23 21 20 20 20 21 21 20 20 20 20 20 21 22 22 22 24 29 37 48 56 60 65 71 78 86 94 97 97 95 93 93 96 104 110 111 108 106 104 103 102 101 103 105 106 106 107 107 105 102 99 94 88 83 80 77 74 71 68 66 62 55 48 42 38 35 31 27 28 28 23 17 16 17 15 11
33 31 29 29 28 27 25 23 22 23 23 21 20 20 20 20 20 19 20 21 21 21 21 21 22 21 24 33 44 54 62 66 70 75 82 88 93 95 93 91 91 93 97 103 109 110 108 106 104 105 105 103 103 107 107 105 105 106 104 100 96 91 87 83 79 75 71 67 64 62 59 54 49 42 38 36 32 28 28 29 25 19 17 18 16 13
32 29 27 25 25 24 23 23 22 22 21 20 20 19 18 19 19 18 20 21 22 21 21 21 22 23 26 37 51 61 68 73 77 81 84 88 90 90 89 89 92 95 99 106 109 109 108 106 104 106 108 105 103 105 105 104 104 104 100 96 92 89 85 82 77 73 69 64 61 58 56 53 49 43 39 37 33 29 28 29 27 20 18 19 18 16
30 29 26 24 23 22 21 22 22 22 20 19 18 18 18 17 18 18 20 21 22 22 21 22 25 27 30 41 56 68 73 77 80 82 83 85 86 87 87 90 94 98 103 109 109 106 106 106 105 106 107 106 105 104 103 102 102 99 95 93 90 86 83 79 76 72 67 62 58 55 52 50 48 44 41 38 34 30 28 30 28 23 19 19 19 18
26 26 25 24 22 20 20 21 21 20 20 19 18 18 18 18 18 19 19 20 21 22 22 23 26 31 36 46 60 70 74 76 79 79 80 82 84 86 89 92 97 102 107 110 109 106 106 106 107 108 109 109 107 105 103 101 97 94 91 89 87 84 80 76 74 71 65 61 57 52 49 47 45 43 42 40 36 31 30 31 30 26 21 19 20 20
27 26 25 26 24 20 19 21 21 19 20 21 19 18 17 18 19 20 20 21 23 25 26 27 30 35 42 50 61 69 72 72 74 76 78 81 84 88 91 95 100 105 107 110 110 108 106 105 106 108 110 112 110 105 101 97 91 87 85 84 82 80 76 72 71 68 64 60 55 51 48 45 42 40 41 41 38 33 30 32 33 30 24 21 20 20
31 29 30 33 30 24 21 21 20 19 20 21 20 19 19 19 19 21 22 23 27 31 34 37 40 44 49 54 60 67 69 68 70 74 79 82 86 91 95 99 103 106 107 108 109 107 106 105 105 104 107 113 114 107 97 90 84 79 77 77 77 76 72 68 66 65 62 59 54 50 48 46 42 39 38 40 39 34 30 32 34 33 30 25 23 22
56 53 52 50 39 29 25 23 20 19 21 25 24 19 19 21 23 27 31 32 35 40 45 49 52 54 56 59 62 66 69 69 72 77 81 84 89 94 97 100 104 106 106 105 105 106 106 105 104 102 102 107 112 106 93 82 77 74 71 71 72 71 68 66 63 61 60 57 53 50 49 47 45 40 36 37 38 33 30 31 33 34 32 28 25 24
97 92 93 86 62 38 29 27 23 20 28 39 40 34 30 29 31 39 46 48 50 54 57 60 62 62 62 63 65 68 71 73 76 79 83 87 92 96 99 101 104 105 104 103 104 105 105 104 103 100 95 95 99 96 86 77 72 70 69 68 68 67 66 63 61 60 58 56 54 52 49 48 48 44 37 36 36 31 28 30 32 33 32 29 25 23
111 107 113 107 80 55 46 42 36 31 39 54 60 59 56 49 45 51 57 59 63 66 66 67 68 68 67 68 70 72 76 79 81 84 87 91 95 98 100 102 103 103 102 102 103 104 103 101 97 93 87 83 83 83 79 73 70 69 68 65 64 63 62 61 60 58 56 54 55 54 50 49 51 48 41 38 36 29 26 28 31 32 32 29 25 22
110 111 114 101 83 73 69 64 56 51 54 61 64 67 68 62 55 57 62 64 67 69 68 68 69 70 72 75 77 79 82 85 87 88 91 95 98 100 101 101 101 100 100 100 101 100 97 93 89 84 80 75 72 72 72 70 68 68 67 63 60 59 59 58 58 57 55 55 56 55 50 50 53 51 45 42 39 31 26 28 31 33 34 31 27 23
Wind_Speed
13 15 20 22 23 24 25 26 28 30 32 34 36 38 39 42 44 47 49 50 53 55 58 59 61 62 62 63 63 64 64 63 63 64 64 64 64 63 61 62 64 66 69 73 77 81 84 85 87 89 92 94 96 99 102 106 110 113 115 118 120 123 125 127 128 127 124 119 113 107 102 98 93 87 82 77 72 65 61 57 53 50 47 45 42 40
11 14 21 23 23 24 25 26 29 31 33 35 37 39 41 43 46 49 51 53 55 58 60 62 63 63 64 64 64 65 64 64 64 64 64 64 64 64 63 62 64 67 70 74 78 82 84 85 87 89 92 95 97 100 102 106 110 113 116 119 121 123 125 127 128 128 126 122 116 109 104 100 96 90 84 80 75 69 63 58 55 52 50 48 46 43
12 16 21 22 22 23 25 27 30 33 35 37 39 41 43 45 48 50 53 55 58 60 62 63 65 65 65 65 65 65 64 64 64 64 64 64 65 65 64 63 65 68 71 75 79 82 84 86 88 90 93 96 98 100 103 106 110 114 117 119 122 124 126 128 130 130 129 125 119 113 107 102 98 93 87 82 78 73 67 61 57 53 50 49 47 46
16 19 20 21 22 23 26 29 32 35 37 39 41 42 44 47 49 51 54 56 59 61 63 64 65 66 66 65 65 64 64 64 64 64 64 64 65 65 64 64 66 69 72 76 79 82 84 86 88 91 94 97 99 101 104 106 110 114 117 120 123 125 127 129 131 131 131 129 124 118 111 105 100 95 90 85 82 78 72 67 62 58 54 50 48 46
19 20 21 22 23 25 28 31 34 36 38 40 41 43 46 48 51 53 55 57 60 62 63 65 66 65 65 64 64 65 65 65 66 66 65 65 66 66 66 66 67 70 74 77 79 82 85 87 89 92 95 97 100 102 104 107 110 114 117 121 123 126 128 130 131 132 133 131 127 122 116 109 104 98 93 88 85 82 77 72 67 63 60 56 51 48
21 22 23 24 26 28 31 34 36 38 39 40 41 44 46 49 52 54 56 58 61 62 63 64 65 65 64 64 65 65 65 66 67 68 67 67 68 68 68 68 70 72 74 77 80 82 85 87 90 93 95 97 100 102 105 108 111 115 118 121 124 126 128 130 132 133 134 133 130 124 118 112 106 101 96 91 87 84 79 74 68 64 62 60 56 52
23 24 25 26 29 31 33 36 38 39 40 41 42 45 48 50 53 54 57 59 61 63 64 65 65 65 65 65 65 66 67 67 68 69 69 69 70 70 70 70 71 72 74 77 80 82 85 88 91 93 95 98 100 103 106 109 112 116 119 122 125 127 129 131 132 134 135 134 132 127 121 114 108 104 99 94 90 86 82 76 70 65 61 60 58 55
24 26 26 28 30 33 35 38 39 40 41 42 43 46 49 51 54 56 59 61 63 65 66 67 67 67 66 66 67 67 68 68 69 70 71 71 72 72 72 72 71 72 74 77 80 83 86 89 91 93 95 98 101 104 107 110 113 116 120 122 125 127 129 131 133 134 135 135 134 130 124 118 112 107 103 98 94 90 86 81 75 68 63 60 58 55
26 27 28 30 32 35 36 38 39 40 41 43 45 48 50 52 54 57 60 63 65 67 67 68 68 69 68 68 68 68 68 69 70 71 73 73 74 74 73 72 72 72 74 77 80 83 86 88 91 93 96 99 102 105 108 111 114 117 120 123 126 128 130 132 134 135 136 136 135 133 128 122 116 110 106 102 98 94 91 87 81 74 67 63 60 57
28 29 30 32 34 36 37 38 40 41 42 45 48 50 52 53 56 58 61 64 67 69 69 68 68 69 69 68 68 69 69 70 72 73 75 75 75 75 73 72 71 72 75 78 81 83 86 88 91 94 97 100 103 106 109 112 115 118 121 123 126 129 131 133 134 136 137 137 137 135 131 125 119 114 109 105 101 98 95 91 86 80 73 68 65 61
29 31 32 34 35 36 38 39 40 42 44 47 49 52 54 56 58 60 62 65 67 69 70 71 70 70 69 69 69 70 71 72 73 75 75 75 75 75 73 71 70 72 75 78 81 83 86 88 91 94 98 101 104 107 110 113 116 118 121 124 127 129 131 133 135 136 137 138 138 137 133 128 122 117 112 107 103 100 97 93 89 83 78 73 69 66
30 32 33 35 36 37 39 40 42 43 46 48 50 53 55 58 60 63 64 65 66 68 70 72 73 73 72 71 72 72 73 73 74 75 75 75 75 74 72 70 70 71 74 78 81 84 86 89 92 95 98 102 104 107 110 113 116 119 121 124 127 129 131 133 135 137 138 139 139 138 136 131 125 119 114 109 105 101 98 94 90 85 80 76 72 69
32 33 34 36 37 38 40 41 43 45 47 49 51 53 54 56 59 62 65 67 67 69 71 72 74 74 73 73 74 74 73 74 74 75 74 74 75 74 71 69 70 71 74 78 81 84 87 89 93 96 99 102 105 108 111 114 116 119 121 124 127 129 131 134 136 137 138 139 140 139 138 134 128 122 117 112 107 103 99 95 91 86 81 77 74 71
33 34 36 38 39 40 41 42 44 46 47 48 50 51 51 53 57 61 65 69 70 71 72 74 74 74 74 74 74 74 74 74 75 75 74 75 75 73 71 70 70 72 75 78 81 84 87 90 94 97 100 103 106 108 111 114 116 119 121 124 127 129 132 134 136 138 139 140 141 140 139 136 131 125 119 114 109 104 100 97 92 87 82 78 75 71
35 36 37 39 40 41 42 43 44 45 46 47 48 50 52 54 58 61 65 70 73 73 73 75 76 75 75 75 75 76 75 74 75 75 75 75 75 74 71 71 71 73 76 78 81 84 88 91 94 97 101 104 106 109 111 114 116 119 122 124 127 129 132 134 136 138 140 141 141 141 140 138 134 129 122 117 112 107 102 98 94 90 84 80 76 73
36 38 38 40 41 42 43 44 45 46 47 48 49 51 54 57 60 63 66 69 72 74 73 72 75 76 75 75 75 75 75 75 75 75 75 76 76 74 72 72 73 75 77 79 82 85 88 92 94 98 101 104 107 109 111 114 117 119 122 124 127 130 132 134 137 139 140 141 142 142 141 139 136 132 126 120 114 109 104 100 96 92 87 82 78 75
38 39 40 41 42 42 43 44 45 46 47 49 51 52 55 58 61 64 66 68 70 74 75 73 72 73 73 73 73 73 75 76 76 76 76 77 76 74 73 73 74 76 78 80 83 86 89 92 95 98 102 104 107 109 111 114 116 119 122 125 127 130 133 135 137 139 140 142 142 143 142 140 138 134 128 122 117 112 107 102 98 94 90 84 80 77
40 41 42 42 43 44 44 45 46 47 49 50 52 54 56 59 62 65 67 68 68 71 76 76 73 73 72 72 72 73 74 76 77 76 76 77 76 75 74 74 76 78 80 82 84 87 90 93 96 99 102 104 106 109 111 114 117 119 122 125 128 130 133 135 137 139 141 142 143 143 143 141 139 135 130 124 119 114 110 105 101 97 92 87 83 79
42 43 44 44 45 46 46 46 47 48 50 52 53 55 58 61 64 66 68 70 69 69 73 77 76 75 75 74 74 74 74 76 77 76 77 77 76 75 74 75 76 78 81 83 86 88 91 94 97 100 102 104 107 109 111 114 117 120 123 125 128 131 133 135 137 139 141 142 143 144 143 142 140 137 132 127 121 116 112 107 103 99 95 90 85 81
44 45 46 46 47 48 48 48 49 50 52 54 56 58 60 62 65 68 70 71 73 72 73 77 78 76 77 77 77 77 76 77 77 77 77 78 77 75 75 76 77 79 81 84 87 89 92 95 98 100 103 105 107 109 112 114 117 120 123 125 128 131 133 135 137 139 141 143 144 144 144 143 141 138 134 129 123 118 114 109 105 101 97 92 87 83
46 47 48 49 49 49 50 51 51 53 55 57 59 61 62 64 66 68 70 72 74 74 74 78 82 80 79 79 80 80 79 79 79 78 79 79 77 76 76 77 78 80 82 85 88 91 93 96 99 101 103 105 107 109 112 115 117 120 123 125 128 130 133 135 137 139 141 143 144 145 144 144 142 139 135 131 125 120 116 111 107 103 99 95 89 84
48 49 50 51 52 52 53 55 55 55 58 60 62 64 65 67 68 69 70 72 74 75 74 78 83 83 82 81 81 81 81 81 80 79 80 80 78 77 77 78 79 81 84 87 90 92 94 97 100 102 104 106 108 110 112 115 118 120 123 125 127 130 132 135 137 139 141 143 144 145 145 144 142 140 136 132 127 122 117 113 109 105 101 97 91 85
49 50 51 52 54 55 55 57 58 59 61 62 64 67 68 70 71 70 70 71 74 76 75 77 82 84 83 83 82 82 83 82 82 81 81 80 78 77 77 78 80 82 85 88 91 93 95 98 100 102 104 106 108 110 113 115 118 120 123 125 127 129 132 134 136 138 141 143 144 145 145 145 143 140 137 134 129 124 119 114 110 107 103 99 93 88
50 51 51 53 55 58 58 60 62 62 63 65 66 68 71 72 73 72 71 71 73 77 77 77 80 83 84 83 83 83 83 83 83 83 82 80 78 77 77 79 81 83 86 89 92 94 97 99 101 103 105 107 109 111 113 115 118 120 122 125 127 129 132 134 136 138 140 142 144 145 146 145 144 141 138 134 130 125 120 116 111 108 104 101 96 91
51 51 52 52 54 57 59 61 63 63 64 66 68 70 72 74 74 73 73 72 72 76 79 79 79 81 83 84 84 84 83 84 84 84 82 79 77 76 77 79 81 84 87 90 93 95 98 100 101 103 106 108 110 112 113 115 118 120 122 124 127 129 131 134 136 138 140 142 144 145 146 145 144 142 138 135 131 126 121 117 112 109 106 102 99 93
53 54 54 54 54 56 59 60 62 64 66 68 70 72 73 74 75 75 75 73 72 75 79 81 80 80 82 83 83 83 83 82 83 82 80 78 76 75 76 78 81 84 87 90 93 96 99 101 102 104 106 109 110 112 114 116 118 120 123 124 127 129 132 134 136 138 140 142 144 145 146 146 144 142 139 135 131 126 122 118 114 110 107 104 100 95
55 57 58 59 58 59 61 63 65 66 67 68 71 74 74 75 76 77 77 75 73 75 78 82 82 81 81 82 82 82 82 81 81 80 78 76 75 75 77 79 81 85 88 91 94 96 99 101 103 105 107 109 111 112 114 116 118 121 123 124 127 129 132 134 136 137 140 142 144 145 146 146 144 142 139 135 131 127 123 120 116 112 109 105 101 96
58 59 61 63 63 62 64 66 68 69 68 68 71 73 75 75 76 78 78 77 76 77 77 81 84 84 83 84 83 83 82 82 81 79 77 75 75 76 78 80 83 86 89 91 94 97 99 102 104 106 108 110 111 113 115 117 119 121 123 125 127 129 132 134 136 137 140 142 143 145 146 146 145 143 139 135 131 127 124 121 117 114 110 106 102 98
59 60 62 65 67 66 66 68 70 70 70 69 70 73 75 76 78 79 79 78 78 78 79 81 85 85 84 85 85 84 84 83 81 80 78 76 76 78 80 82 85 88 89 92 94 97 99 102 104 106 108 110 112 114 115 117 119 121 123 125 127 129 131 134 136 137 139 141 143 145 146 146 145 143 140 136 132 128 124 121 119 115 111 107 103 100
60 62 63 65 69 70 69 70 71 72 72 70 70 73 75 77 80 81 81 79 77 78 80 82 83 84 84 85 85 85 84 83 81 79 78 78 78 80 82 84 86 88 90 92 95 97 99 102 104 106 108 110 112 114 116 117 120 122 123 125 127 129 131 133 135 137 139 141 143 144 145 146 145 143 140 136 132 128 124 122 119 116 113 109 105 101
62 64 64 64 68 71 71 72 73 74 73 71 71 74 76 79 81 84 83 80 77 77 80 82 82 82 83 84 85 85 84 82 79 78 78 79 80 81 83 85 86 89 91 93 95 97 99 101 103 106 108 110 112 114 116 117 120 122 123 125 127 128 131 133 135 137 138 140 142 143 145 145 145 143 140 136 132 128 124 121 119 116 113 109 106 102
65 66 66 66 67 70 71 71 73 75 74 72 72 74 77 80 83 85 84 82 79 78 79 81 82 82 81 82 83 84 83 81 78 77 77 79 81 82 84 85 87 89 92 93 95 97 100 102 103 105 108 110 112 114 116 117 120 122 123 125 127 128 130 132 134 136 138 139 141 143 144 145 144 143 140 136 132 128 124 121 118 116 113 110 106 102
68 68 68 68 67 69 70 69 70 73 74 72 72 74 77 80 83 85 86 84 82 80 81 82 82 82 81 82 81 81 80 79 77 76 76 78 81 83 84 86 88 90 93 94 96 98 100 102 104 105 107 109 112 114 115 117 120 122 123 125 127 129 130 132 134 135 137 139 140 142 143 144 144 142 140 136 132 128 123 120 117 115 113 109 106 102
71 71 71 70 69 69 69 69 69 72 74 72 71 74 77 80 83 85 88 88 85 82 81 83 83 82 82 81 80 78 78 77 76 76 77 79 81 83 85 87 89 91 93 95 96 98 100 102 104 106 107 109 111 113 115 116 119 121 123 125 127 128 130 131 133 135 136 138 140 141 143 143 143 142 139 135 131 127 123 119 117 114 112 109 106 102
73 74 73 73 72 70 70 69 69 71 74 73 71 73 77 81 84 86 88 90 87 83 82 83 83 83 81 81 80 77 76 77 77 77 78 80 82 84 86 89 91 92 94 96 97 99 101 103 105 107 108 109 111 113 114 116 118 121 123 125 127 128 129 131 132 134 135 137 139 140 142 142 142 141 138 134 131 126 122 118 116 114 111 109 106 102
75 75 75 75 75 73 71 71 70 71 73 74 72 73 77 81 84 84 86 90 89 85 83 83 83 83 81 80 78 76 74 75 77 78 80 81 83 85 87 89 91 93 95 96 98 100 101 103 105 107 108 109 111 113 114 116 118 121 123 125 127 128 129 130 131 133 134 136 138 139 140 141 141 140 137 133 130 126 121 117 115 113 111 109 106 102
77 78 78 78 78 76 74 74 72 72 74 74 73 73 76 80 83 83 84 87 88 86 84 83 83 82 81 79 77 75 73 74 76 78 80 81 83 85 87 89 91 94 96 97 99 101 102 104 106 107 108 109 111 113 114 116 118 121 123 125 127 128 129 130 131 132 133 134 136 138 139 140 140 138 136 132 128 125 121 117 114 113 112 110 106 102
80 80 81 81 81 80 78 76 74 73 75 75 73 72 74 79 82 82 81 84 86 86 84 83 83 82 80 78 77 75 72 72 74 77 79 80 82 84 86 88 91 94 96 98 100 102 103 105 106 107 108 110 111 113 114 116 118 120 122 124 126 128 129 130 130 131 132 133 135 137 138 138 138 137 134 131 127 124 120 117 114 112 112 111 108 104
83 83 83 84 84 83 81 79 77 76 77 76 74 73 75 79 82 81 80 81 84 84 83 81 82 81 79 78 77 76 74 73 74 76 78 80 82 84 86 88 91 94 96 99 101 102 103 105 107 108 109 110 112 113 114 116 118 120 122 124 126 128 129 130 130 130 131 132 133 135 136 137 136 135 132 129 126 122 120 116 114 112 112 111 110 107
85 85 85 86 86 85 84 82 80 81 81 79 76 75 76 80 82 81 79 79 81 82 81 80 81 80 79 78 77 77 77 77 76 78 80 81 83 86 88 90 92 94 96 98 101 102 104 105 107 108 109 111 112 113 114 116 118 120 123 124 126 127 129 129 130 130 130 131 132 133 134 135 135 133 130 127 124 121 118 115 113 112 111 111 110 108
86 86 87 88 88 88 86 83 82 84 85 82 78 77 78 81 82 81 79 79 80 81 81 81 81 80 79 79 79 79 80 80 80 81 82 83 85 87 89 91 93 95 96 98 100 102 104 106 107 109 110 111 113 113 115 117 119 121 123 124 125 127 128 129 130 130 130 131 131 132 132 133 133 131 128 125 122 119 117 114 112 111 111 111 110 109
87 87 88 89 90 89 87 85 85 87 86 84 80 78 79 81 81 79 79 79 80 81 80 81 82 81 79 79 80 80 81 82 82 83 84 85 87 89 91 93 95 96 97 98 100 102 104 106 108 110 111 112 113 114 115 117 119 121 122 124 125 126 127 128 129 129 130 130 130 131 131 131 130 129 126 123 121 118 116 114 112 111 110 110 109 109
90 90 89 90 91 91 88 85 87 89 87 84 82 80 80 81 80 79 79 79 81 82 81 80 81 82 80 79 80 82 82 83 84 85 86 87 89 91 93 94 96 97 98 98 99 101 103 106 108 110 112 113 114 115 117 118 119 121 122 123 124 125 126 127 128 129 129 130 129 129 129 129 128 126 124 121 119 116 114 113 111 110 110 109 109 109
92 93 92 91 92 92 88 86 89 90 87 84 83 82 82 82 81 81 80 79 80 81 81 80 80 82 81 80 80 82 83 84 85 87 88 89 91 92 94 96 97 97 98 99 99 100 103 105 107 109 111 113 115 116 118 119 120 121 122 122 123 124 125 126 127 128 128 129 128 128 127 127 126 124 122 120 117 115 113 112 110 110 109 108 108 108
92 94 93 92 93 92 87 87 90 91 88 86 85 85 85 84 83 83 82 81 80 80 80 80 80 82 82 81 81 83 85 86 87 89 90 91 93 94 96 96 97 98 99 100 100 101 102 104 106 108 110 112 115 118 119 119 120 121 121 122 122 123 124 125 126 127 127 128 127 126 125 124 123 122 120 118 115 113 112 111 110 109 108 107 107 106
92 94 94 93 94 91 87 88 92 92 88 86 87 88 88 85 85 85 83 82 81 81 81 81 82 82 83 83 82 85 87 88 89 91 93 93 94 95 97 97 98 99 100 101 102 102 103 104 105 106 108 111 114 117 119 120 121 121 121 121 121 122 123 124 124 125 126 126 126 125 123 122 120 119 118 117 115 112 111 110 109 109 108 107 106 105
91 93 94 95 96 92 87 87 91 91 87 85 87 89 88 86 85 85 84 82 82 82 83 84 84 84 84 84 84 86 89 91 91 92 94 95 95 96 97 98 99 99 101 102 103 104 105 105 105 105 106 109 112 115 118 121 122 121 121 120 120 121 122 123 123 123 124 124 124 123 121 119 118 116 115 114 114 112 110 109 109 109 109 108 107 105
91 92 94 96 96 93 89 89 91 89 85 84 87 88 87 86 85 84 84 84 83 84 84 85 86 86 86 86 87 88 90 93 94 94 95 97 97 97 98 99 100 100 101 103 105 105 106 106 106 105 106 108 110 112 116 120 122 122 121 120 119 119 120 121 122 122 122 122 121 120 118 116 115 114 112 111 110 110 109 108 108 108 108 108 107 106
93 94 96 97 95 92 91 91 92 88 82 82 87 88 88 87 86 85 84 85 85 85 86 87 89 89 89 89 89 90 92 95 96 96 97 98 98 98 99 100 100 101 103 104 105 106 107 107 107 107 107 107 109 110 113 117 120 121 120 119 118 118 118 119 120 120 120 119 118 117 116 114 112 112 110 108 107 105 105 106 106 106 107 107 105 104
94 96 99 100 97 95 93 92 93 89 83 82 87 89 89 89 88 86 86 86 87 87 88 88 90 92 93 93 92 93 94 96 97 98 99 99 100 100 100 101 102 103 104 105 106 107 107 108 108 109 108 108 108 109 111 114 117 119 119 118 118 117 116 116 117 117 117 116 115 114 113 111 110 109 109 107 105 103 102 103 104 104 105 105 104 103
97 100 103 103 103 101 97 96 96 92 87 87 90 91 92 94 93 91 89 89 90 91 92 92 93 94 95 96 96 96 96 97 98 99 100 101 102 102 102 102 103 104 105 106 106 107 108 108 109 110 110 110 109 109 110 111 113 115 116 116 116 115 114 114 114 114 114 113 112 111 110 108 107 107 107 107 105 102 100 101 102 103 104 105 104 103
Wind_Direction
18 20 32 27 18 10 7 10 12 10 8 6 4 1 359 359 359 360 0 1 0 360 359 359 358 357 357 356 355 355 354 353 353 352 353 353 352 351 350 351 352 352 351 352 354 356 358 359 359 359 359 359 359 359 359 360 0 2 4 5 6 6 6 6 6 6 6 5 3 2 0 359 358 356 355 355 355 353 351 348 345 341 338 336 333 330
348 9 26 20 12 4 360 4 8 7 5 3 1 359 358 358 359 359 359 359 359 359 359 358 357 356 356 355 355 354 352 352 352 352 352 352 351 350 350 351 351 351 351 353 355 356 358 358 358 358 359 359 359 359 360 360 0 2 4 5 6 6 6 6 6 6 6 6 4 3 2 0 359 358 357 356 356 355 353 351 348 344 341 338 336 333
350 13 21 13 5 357 355 0 5 5 3 1 359 357 357 357 358 358 358 358 358 358 358 357 356 355 355 354 353 352 351 351 352 351 351 351 351 351 351 350 350 351 352 354 355 356 357 358 358 358 358 359 359 359 359 360 0 2 3 5 6 6 6 6 6 7 7 6 5 4 3 2 0 359 357 357 357 356 354 352 350 348 344 341 338 335
3 10 12 7 359 351 353 360 3 3 1 359 357 356 356 356 357 357 357 358 358 357 356 356 355 354 353 352 351 350 350 351 351 350 351 351 351 351 350 350 350 352 354 355 355 356 356 357 357 357 358 358 358 359 359 360 0 1 3 5 6 7 7 7 7 7 7 6 6 5 4 3 1 0 359 358 358 357 355 353 351 349 347 344 341 337
360 1 4 0 351 349 354 360 2 1 360 357 355 355 356 355 356 356 357 357 357 356 355 355 354 352 351 350 350 349 350 351 351 350 351 352 352 351 350 350 351 353 354 355 355 355 356 356 356 357 357 357 357 358 359 360 0 1 3 4 6 6 7 7 7 7 7 7 6 6 5 4 2 1 0 360 359 359 357 355 352 349 348 346 343 340
354 355 357 351 348 351 354 359 0 358 357 355 353 355 355 355 355 356 356 356 356 354 354 353 352 350 350 349 349 349 350 351 350 350 350 352 352 351 350 351 353 354 354 354 355 355 355 356 357 357 357 356 357 358 359 360 1 2 3 4 5 6 7 7 7 7 7 7 6 6 6 5 3 2 1 1 1 0 359 357 353 350 348 346 344 342
350 350 349 347 349 350 354 358 357 355 355 353 353 354 354 354 355 355 355 355 354 352 352 351 350 349 349 348 348 349 351 351 350 350 350 352 352 351 351 352 354 354 354 354 354 354 355 356 356 356 355 355 356 358 359 360 1 2 3 4 5 6 6 7 7 7 7 6 6 6 6 5 4 3 2 1 1 1 0 359 356 352 349 347 345 342
344 344 343 345 348 349 354 356 353 353 353 351 352 354 354 354 354 354 354 353 352 351 351 350 348 348 347 348 348 349 350 350 350 350 351 352 352 351 351 352 353 354 353 353 354 354 355 356 356 355 354 355 356 357 359 360 1 2 2 3 4 5 6 6 7 7 7 6 6 6 6 6 5 4 3 2 1 1 0 359 357 355 351 349 346 344
339 339 340 344 347 349 353 352 351 351 350 349 352 353 353 354 354 354 353 352 351 350 350 348 347 346 346 347 348 349 350 350 350 351 352 352 352 351 352 352 353 353 353 353 354 354 355 355 355 354 354 354 356 357 359 360 1 2 2 2 3 5 5 6 6 7 7 6 6 6 6 6 5 5 4 3 2 1 0 359 358 356 353 350 348 346
336 336 340 344 345 348 350 349 349 349 348 350 352 352 352 353 353 353 353 351 349 348 347 346 346 346 346 347 348 348 349 350 351 352 352 352 351 351 351 352 352 352 352 353 353 355 355 354 353 353 353 354 356 357 358 360 1 2 2 2 3 4 5 5 6 6 6 6 6 6 6 6 6 5 4 4 3 2 1 359 358 356 354 351 349 347
332 334 339 341 342 346 347 347 347 347 348 350 351 351 352 352 352 352 351 350 348 347 345 345 345 345 346 346 347 348 350 351 352 352 352 351 350 350 351 351 351 352 352 353 354 355 354 353 352 353 353 354 356 357 358 359 0 1 1 2 2 3 4 5 5 6 6 6 6 6 5 5 6 6 5 4 3 2 1 360 358 356 354 352 350 348
331 333 335 337 340 343 344 345 345 346 347 349 351 352 352 351 351 350 349 348 347 345 344 344 344 344 345 346 347 349 350 350 352 352 351 351 350 350 350 350 351 351 352 352 354 354 353 352 352 352 353 354 356 357 358 359 360 1 1 1 2 3 3 4 4 5 5 6 6 6 5 5 5 6 6 5 4 3 2 1 359 357 355 352 350 348
329 330 331 335 338 341 342 343 344 345 347 349 351 351 351 350 349 348 346 346 345 345 344 344 344 344 345 346 348 349 349 350 351 351 350 350 350 349 349 350 350 351 352 353 354 353 352 352 351 352 353 354 356 357 358 359 359 360 0 1 1 2 3 3 4 4 5 5 5 5 5 5 5 5 5 5 4 3 2 1 360 358 355 353 351 349
325 327 330 334 336 338 340 341 342 344 345 347 349 349 348 348 348 347 346 344 344 345 345 344 344 344 345 346 347 348 349 350 350 350 350 349 349 348 348 349 350 351 352 353 353 352 352 352 351 352 353 354 356 357 358 358 359 359 360 0 1 1 2 2 3 4 4 5 5 5 5 5 4 5 5 5 4 3 2 1 0 358 356 354 352 350
322 325 329 332 334 335 337 338 340 341 343 345 346 346 346 347 347 347 346 345 344 344 345 344 343 344 345 347 347 347 348 349 349 349 350 349 349 348 348 349 349 351 352 353 352 352 351 352 351 352 353 354 356 357 357 358 358 359 359 360 0 1 1 2 2 3 4 4 4 5 5 4 4 4 4 4 4 3 2 1 0 359 357 355 353 351
321 324 327 329 331 333 335 335 337 339 342 344 345 345 345 346 346 346 346 345 343 342 343 344 343 343 345 346 346 346 346 347 349 349 349 349 348 348 347 348 349 351 353 353 352 351 351 351 351 352 353 354 356 356 357 357 357 358 358 359 360 0 1 1 2 2 3 3 4 4 4 4 4 3 3 4 4 3 2 2 1 360 358 356 354 352
319 322 325 327 329 331 332 333 335 338 340 342 343 343 344 345 345 345 344 344 343 342 341 342 343 343 344 345 344 345 346 346 348 349 349 349 348 347 347 348 349 351 352 352 351 350 351 351 351 352 353 354 355 356 356 356 357 357 358 359 359 360 0 1 1 2 2 3 3 4 4 4 3 3 3 3 3 3 3 2 1 0 359 357 355 353
318 320 323 325 327 328 330 332 334 336 338 340 341 342 343 343 343 343 342 342 342 342 340 339 341 342 343 344 343 345 346 347 347 348 348 348 347 346 347 348 349 351 351 351 350 350 350 350 351 352 353 354 355 355 356 356 356 357 357 358 359 359 360 0 0 1 1 2 2 3 3 3 3 3 2 2 3 3 3 2 1 0 359 358 356 354
318 320 322 324 325 326 328 330 333 335 337 338 339 341 341 341 341 341 341 340 340 342 341 338 339 341 342 342 343 345 347 347 346 347 348 347 347 346 347 348 349 350 350 350 349 349 349 350 351 352 353 353 354 355 355 355 356 357 357 358 358 359 359 359 360 360 0 1 2 2 3 3 3 2 2 2 2 3 2 2 1 1 360 358 357 355
317 319 320 322 324 325 327 329 332 334 335 337 338 339 339 340 340 340 340 339 339 341 341 339 338 341 341 342 343 344 346 347 346 347 347 347 346 346 347 348 349 350 349 348 348 348 349 350 351 352 352 353 354 354 355 355 355 356 357 357 357 358 358 359 359 359 360 0 1 2 2 3 3 2 2 1 1 2 2 2 1 1 360 359 358 356
317 318 319 321 323 325 326 328 331 333 334 336 336 337 337 337 338 339 339 339 338 339 341 340 339 340 341 342 343 343 345 346 345 346 347 347 346 347 347 348 348 349 348 347 347 348 348 349 350 351 352 353 353 354 354 355 355 356 356 357 357 357 358 358 358 359 359 359 0 1 2 2 2 2 2 1 1 1 2 2 1 1 360 359 358 356
316 317 318 320 322 324 326 327 329 332 334 335 335 334 335 336 337 338 338 338 337 338 341 342 339 339 340 341 342 343 344 344 344 345 346 347 346 347 347 347 347 347 347 346 347 347 348 349 349 350 351 352 353 353 354 354 354 355 356 356 356 357 357 357 357 358 358 359 359 360 1 2 2 2 1 1 0 360 1 1 1 1 360 359 359 357
315 316 318 320 321 323 325 326 328 331 332 333 333 333 333 334 335 336 337 338 337 337 339 342 340 339 339 340 341 342 343 343 343 345 346 346 346 346 346 346 346 346 346 346 346 347 348 348 349 350 351 352 352 353 353 354 354 354 355 355 356 356 356 356 357 357 357 358 358 359 360 1 1 1 1 0 360 359 360 1 1 1 360 359 359 358
314 316 317 319 321 322 324 326 327 329 331 331 331 331 332 333 334 334 335 337 338 337 338 340 340 339 338 339 341 342 342 342 342 344 346 345 345 345 345 345 345 345 345 345 345 346 347 348 348 349 350 351 352 352 353 353 353 354 354 355 355 355 355 356 356 356 357 357 358 358 359 0 1 1 1 0 360 359 359 360 1 1 0 360 359 358
313 314 316 318 319 320 322 324 325 327 328 329 329 330 332 332 333 333 334 336 338 338 337 338 339 339 338 339 340 340 341 341 342 343 344 344 344 345 344 344 344 344 344 344 345 346 346 347 348 349 350 350 351 351 352 352 353 353 354 354 354 355 355 355 355 356 356 356 357 357 358 359 0 1 0 360 359 358 358 359 0 1 1 360 359 359
313 314 315 316 318 319 320 322 323 325 327 329 329 330 331 331 332 332 332 334 337 338 337 336 337 338 338 338 339 339 340 341 341 342 342 343 343 344 344 344 344 343 344 344 345 345 345 346 347 348 349 350 350 351 351 352 352 353 353 354 354 354 354 354 355 355 355 356 356 357 357 358 359 0 0 360 359 358 358 358 360 1 1 0 360 359
313 314 315 316 318 320 321 322 324 325 327 329 329 329 330 330 331 330 330 333 336 337 337 335 335 337 338 337 337 338 338 340 340 340 341 341 342 342 343 343 343 343 344 344 344 344 345 346 347 348 348 349 349 350 350 351 352 352 352 353 353 353 353 353 354 354 355 355 355 356 356 357 358 359 360 359 359 358 358 358 359 0 1 0 359 359
313 314 316 316 318 320 321 322 323 324 326 328 328 328 328 329 329 329 329 332 335 335 335 335 334 336 337 336 336 337 338 339 339 339 340 340 340 341 342 342 342 343 343 344 343 344 344 345 346 347 347 348 348 349 350 350 351 351 352 352 352 352 352 353 353 353 354 354 355 355 356 356 358 359 359 359 359 358 358 357 358 359 0 360 360 359
312 313 315 316 317 318 320 321 322 323 324 326 327 327 327 327 328 328 328 331 333 333 334 335 335 335 336 336 336 336 337 338 339 338 338 339 339 340 341 342 342 342 343 343 343 344 344 345 346 346 346 347 348 348 349 349 350 350 351 351 352 352 352 352 352 353 353 353 354 354 355 355 357 358 359 359 359 358 358 357 357 358 359 360 360 360
311 312 313 315 315 317 319 320 320 321 323 325 326 326 326 326 327 327 327 329 331 332 333 334 334 334 335 335 335 335 336 337 338 337 337 338 338 340 340 341 341 341 342 342 342 344 344 345 345 345 346 346 347 348 348 348 349 350 350 351 351 351 351 351 351 352 352 353 353 353 354 354 356 357 358 359 358 358 358 357 357 357 359 359 360 360
309 310 311 313 314 315 317 319 319 320 321 323 325 325 325 326 327 326 325 326 329 331 332 332 332 333 334 334 334 335 335 336 337 336 336 337 338 338 339 340 340 340 340 341 342 343 344 344 344 345 345 346 346 347 347 347 348 349 349 350 350 350 350 350 350 351 351 352 352 352 353 354 355 356 358 358 358 358 358 357 356 357 358 359 360 360
308 309 310 311 312 313 315 317 318 318 319 322 324 324 324 325 325 325 323 324 327 330 331 331 331 332 333 333 334 334 333 335 336 336 336 336 336 337 338 339 339 339 339 341 342 343 343 343 344 344 345 345 346 346 346 346 347 348 348 348 349 349 350 350 350 350 350 351 351 352 352 353 354 355 357 358 358 358 357 357 356 356 357 359 360 360
306 307 308 309 311 312 313 314 316 316 317 319 322 322 322 323 323 324 323 323 326 329 330 330 330 331 332 333 333 333 332 333 334 334 334 335 335 336 337 338 338 338 339 340 341 342 343 343 343 344 344 345 345 345 345 345 346 347 347 347 348 348 349 349 349 349 349 350 350 351 351 352 353 354 356 357 358 358 357 357 356 356 356 358 359 360
305 306 307 308 309 310 311 312 314 314 315 317 320 320 320 321 322 323 323 323 325 327 328 329 329 330 332 331 332 332 331 331 332 333 333 334 334 335 336 336 337 337 338 339 340 341 342 342 343 343 344 344 344 344 344 344 345 346 346 346 347 347 348 348 348 348 349 349 349 350 350 351 352 354 355 357 357 357 357 357 356 356 356 358 359 360
304 305 306 307 308 308 309 310 312 313 313 315 318 319 320 321 322 323 323 322 323 325 327 328 328 329 330 330 330 331 331 330 331 332 332 333 334 335 335 335 336 336 337 338 339 341 341 341 342 342 343 343 343 343 344 344 344 344 345 345 346 346 347 347 347 348 348 348 348 349 349 351 352 353 355 356 357 357 357 357 356 356 356 357 359 360
303 304 305 305 306 307 308 309 310 312 312 313 316 318 319 320 319 321 321 321 321 324 326 327 327 327 328 329 329 329 329 329 329 330 331 332 333 334 334 334 334 335 336 337 339 340 340 341 341 341 342 342 342 342 343 343 343 343 344 344 345 345 346 346 347 347 347 347 347 348 349 350 351 352 354 355 356 357 357 357 356 356 356 356 358 359
302 303 304 304 305 305 306 307 309 310 310 312 314 316 317 317 317 318 320 319 320 322 325 325 325 325 326 327 326 327 327 327 328 329 330 331 332 332 332 332 333 334 336 337 338 339 339 340 340 341 341 341 341 341 342 342 342 342 343 343 343 344 345 345 346 346 346 346 347 347 348 349 350 351 353 355 356 357 357 357 356 356 356 356 357 359
301 301 302 303 303 304 305 306 307 308 309 310 312 314 315 315 315 316 318 319 319 321 323 323 323 323 324 324 324 324 325 326 326 327 328 329 330 330 330 331 333 334 335 336 337 338 338 339 339 340 340 340 340 340 340 341 341 341 342 342 342 343 343 344 345 345 346 346 346 346 347 348 349 350 352 354 355 356 357 357 357 357 357 356 356 358
299 299 300 301 301 302 303 305 306 307 307 308 310 312 313 313 313 315 317 318 318 319 320 321 321 321 322 322 321 321 322 324 325 326 327 327 328 328 330 331 333 334 335 335 336 336 337 338 338 338 338 339 339 339 339 339 340 340 341 341 341 342 342 343 344 344 345 345 345 345 346 347 348 350 352 353 355 356 357 357 357 357 357 356 356 357
297 298 299 299 300 301 302 304 306 306 306 307 309 311 312 312 312 314 315 316 316 316 317 318 318 319 320 319 319 320 321 323 324 325 326 326 327 328 329 331 332 333 334 335 335 335 336 337 337 337 337 337 337 338 338 338 339 339 340 340 340 341 341 342 342 343 344 344 344 344 345 346 347 349 351 353 355 356 357 357 358 358 358 357 357 357
295 296 297 298 299 300 301 303 305 305 305 306 308 310 310 310 311 312 314 314 314 314 315 316 317 317 318 318 319 320 321 322 324 325 325 326 327 328 329 330 331 332 333 334 334 334 335 335 336 336 336 336 336 336 337 337 338 338 339 339 339 340 340 340 341 342 342 343 343 344 344 345 346 348 351 352 354 356 357 357 358 359 359 358 358 358
294 295 296 297 298 298 300 302 303 302 303 305 306 308 308 308 308 310 312 313 312 313 314 316 316 317 318 318 319 320 321 322 323 324 324 325 326 327 328 329 330 331 332 333 333 334 334 334 334 334 334 334 335 335 336 336 337 337 338 338 338 338 339 339 340 341 341 342 342 343 344 344 346 348 350 352 354 355 357 357 358 359 359 359 359 358
294 295 295 296 296 297 299 301 301 301 302 303 305 306 306 306 307 309 311 312 312 313 314 315 315 316 317 318 318 319 320 321 322 323 323 324 325 326 327 328 328 329 330 331 332 333 333 333 333 333 333 333 333 334 335 335 335 336 336 337 337 337 338 338 339 339 340 341 341 342 343 344 345 347 349 351 353 355 357 358 358 359 360 360 360 359
294 295 295 295 295 296 298 300 299 299 301 303 304 305 305 305 307 309 310 311 311 312 313 314 314 315 316 317 317 318 318 320 320 321 322 323 324 325 326 326 327 328 329 330 331 332 332 332 332 332 332 332 332 333 333 334 334 335 335 335 336 336 337 337 337 338 339 339 340 341 342 343 344 346 349 351 353 354 356 358 359 359 0 0 1 0
294 294 294 294 294 294 297 299 298 299 301 303 304 304 304 306 308 308 309 310 310 311 312 312 313 314 315 316 317 317 317 318 319 320 320 321 323 323 324 325 326 327 328 328 329 330 331 331 331 330 330 331 331 331 332 332 333 334 334 334 335 335 335 336 336 337 337 338 339 341 342 343 344 346 348 350 352 354 356 358 359 360 0 1 1 1
293 293 294 293 292 293 296 297 297 298 300 303 304 304 304 306 307 307 308 309 310 310 311 311 312 313 313 315 316 315 315 316 317 318 319 320 321 322 323 324 325 326 326 327 327 328 329 329 329 329 329 330 330 330 330 331 332 332 333 333 333 334 334 335 335 336 336 337 338 340 341 342 344 346 348 349 351 353 355 357 359 360 0 1 1 1
292 292 293 292 292 293 295 295 295 297 300 302 302 302 303 305 305 306 307 308 309 309 310 310 311 311 312 313 313 313 313 314 315 317 317 318 320 321 322 323 323 324 325 325 326 327 327 327 328 328 328 329 328 329 329 330 330 331 332 332 332 332 333 333 334 334 335 336 337 339 340 342 343 345 348 349 350 352 355 357 359 360 1 1 1 1
292 292 291 290 291 293 294 294 294 296 299 300 300 300 301 303 304 305 306 307 307 308 308 309 309 309 310 311 311 312 312 313 315 316 316 317 318 319 320 321 322 323 323 324 324 325 325 326 326 327 328 327 327 328 328 328 329 329 330 331 331 331 332 332 333 333 334 335 336 338 339 341 343 345 348 349 350 352 354 356 358 360 0 1 1 1
293 292 290 289 290 292 293 293 294 296 299 300 299 299 300 301 302 303 304 305 306 306 306 307 307 307 308 309 310 311 312 312 314 315 315 316 317 318 319 319 320 321 322 322 322 323 323 324 324 325 326 326 327 327 327 327 327 328 328 329 329 330 331 331 331 332 333 334 335 337 339 340 342 344 347 349 350 352 354 356 358 359 360 1 1 1
291 290 288 289 291 292 292 293 293 295 298 298 297 298 299 299 300 301 302 302 303 303 304 304 305 306 307 308 309 310 311 311 312 313 314 315 315 316 317 318 319 319 320 321 321 321 322 322 323 324 324 325 326 326 326 326 326 326 326 327 328 329 329 330 330 331 332 333 335 336 338 340 341 343 346 348 349 352 354 356 357 358 360 0 1 1
288 286 287 289 291 291 292 292 293 294 296 296 296 296 297 297 298 299 300 301 301 302 302 303 304 305 307 308 309 309 310 310 311 312 313 313 314 315 315 316 317 318 319 319 319 320 320 321 321 322 323 324 325 325 325 325 325 325 325 326 327 327 328 329 329 329 331 332 334 335 337 339 341 343 345 347 348 350 353 356 357 358 359 360 0 1